Retour au catalogue

STARLINK-31816

ActifCommunicationsVLEO
NORAD 59742·PAYLOAD·🇺🇸 United States

Lancé May 13, 2024 depuis Cape Canaveral Space Force Station

Loading…

Prochains Passages (prochaines 24 heures)

TLE

FraisSource: CelesTrak SupGP

Époque: Sep 15, 2026, 02:26 UTC

1 59742C 24090N   26258.10187500 -.00060868  00000+0 -22050-2 0  2585
2 59742  42.9999 194.1786 0001309 273.6977  83.7622 15.27602784    12

Suivez STARLINK-31816 en temps réel avec AllMySat

Download on the App Store